HJ3GNC-15 Weather Reports


time (UTC)temp
C
wind
direction
speed
KPH
gust
KPH
rain 1hr
cm
rain 24hr
cm
rain mn
cm
humidity
%
barometer
mb
20260505093233 13 270 0.0 0.0 0.00 0.00 0.00 91 1015.0
20260505091640 13 272 0.0 0.0 0.00 0.00 0.00 92 1015.0
20260505090058 13 272 0.0 0.0 0.00 0.00 0.00 92 1015.0
20260505084515 13 272 0.0 0.0 0.00 0.00 0.00 92 1015.0
20260505082928 14 268 0.0 0.0 0.00 0.00 0.00 92 1014.0
20260505081342 14 268 0.0 0.0 0.00 0.00 0.00 92 1014.0
20260505075800 14 268 0.0 0.0 0.00 0.00 0.00 92 1014.0
20260505074214 14 268 0.0 0.0 0.00 0.00 0.00 92 1014.0
20260505072630 13 268 0.0 0.0 0.00 0.00 0.00 93 1015.0
20260505071047 13 268 0.0 0.0 0.00 0.00 0.00 93 1015.0
20260505065505 13 268 0.0 0.0 0.00 0.00 0.00 93 1015.0
20260505063921 13 268 0.0 0.0 0.00 0.00 0.00 93 1015.0
20260505062339 14 271 0.0 0.0 0.00 0.00 0.00 93 1016.0
20260505060754 14 271 0.0 0.0 0.00 0.00 0.00 93 1016.0
20260505055210 14 271 0.0 0.0 0.00 0.00 0.00 93 1016.0
20260505053626 14 271 0.0 0.0 0.00 0.00 0.00 93 1016.0
20260505052040 14 269 0.0 0.0 0.00 0.00 0.00 93 1016.0
20260505050455 14 269 0.0 0.0 0.00 0.00 0.00 92 1016.0
20260505041750 15 262 0.0 0.0 0.00 0.00 0.00 92 1017.0
20260505040210 15 262 0.0 0.0 0.00 0.00 0.00 92 1017.0
20260505034615 15 262 0.0 0.0 0.00 0.00 0.00 93 1017.0
20260505033020 15 262 0.0 0.0 0.00 0.00 0.00 93 1017.0
20260505031437 15 261 0.0 0.0 0.00 0.00 0.00 91 1016.0
20260505025854 15 261 0.0 0.0 0.00 0.00 0.00 92 1017.0
20260505024308 15 261 0.0 0.0 0.00 0.00 0.00 92 1017.0
20260505022724 15 259 0.0 0.0 0.00 0.00 0.00 91 1016.0
20260505021140 15 259 0.0 0.0 0.00 0.00 0.00 91 1016.0
20260505015555 15 259 0.0 0.0 0.00 0.00 0.00 92 1016.0
20260505014012 15 259 0.0 0.0 0.00 0.00 0.00 92 1016.0
20260505012428 15 259 0.0 0.0 0.00 0.00 0.00 91 1015.0
20260505010843 15 259 0.0 0.0 0.00 0.00 0.00 91 1015.0
20260505005259 15 259 0.0 0.0 0.00 0.00 0.00 93 1015.0
20260505003706 15 259 0.0 0.0 0.00 0.00 0.00 93 1015.0
20260505002059 16 258 0.0 0.0 0.00 0.00 0.00 91 1014.0
20260505000517 16 258 0.0 0.0 0.00 0.00 0.00 93 1013.0
20260504234935 16 258 0.0 0.0 0.00 0.00 0.00 93 1013.0
20260504233355 16 258 0.0 0.0 0.00 0.00 0.00 93 1013.0
20260504231812 16 216 0.0 0.0 0.00 0.00 0.00 87 1012.0
20260504224643 16 216 0.0 0.0 0.00 0.00 0.00 89 1012.0
20260504223102 16 216 0.0 0.0 0.00 0.00 0.00 89 1012.0
20260504221520 18 174 0.0 0.0 0.00 0.00 0.00 79 1011.0
20260504215936 18 174 0.0 0.0 0.00 0.00 0.00 81 1011.0
20260504214352 18 174 0.0 0.0 0.00 0.00 0.00 82 1011.0
20260504212806 18 170 0.0 0.0 0.00 0.00 0.00 75 1010.0
20260504211223 18 170 0.0 0.0 0.00 0.00 0.00 75 1010.0
20260504205638 18 170 0.0 0.0 0.00 0.00 0.00 77 1010.0
20260504204043 27 170 0.0 0.0 0.00 0.00 0.00 64 1010.0
20260504202458 27 157 0.0 0.0 0.00 0.00 0.00 64 1011.0
20260504200845 26 157 0.0 0.0 0.00 0.00 0.00 64 1011.0
20260504195301 26 157 0.0 0.0 0.00 0.00 0.00 64 1011.0
20260504193719 25 157 0.0 0.0 0.00 0.00 0.00 64 1011.0
20260504192140 25 151 0.0 0.0 0.00 0.00 0.00 64 1011.0
20260504190549 24 151 0.0 0.0 0.00 0.00 0.00 64 1011.0
20260504185008 23 151 0.0 0.0 0.00 0.00 0.00 64 1011.0
20260504183426 23 151 0.0 0.0 0.00 0.00 0.00 64 1011.0
20260504181842 22 223 0.0 0.0 0.00 0.00 0.00 64 1013.0
20260504180300 22 223 0.0 0.0 0.00 0.00 0.00 64 1012.0
20260504174717 21 155 0.0 0.0 0.00 0.00 0.00 64 1012.0
20260504173134 21 155 0.0 0.0 0.00 0.00 0.00 64 1012.0
20260504171549 20 233 0.0 0.0 0.00 0.00 0.00 74 1014.0
20260504151001 17 116 0.0 0.0 0.00 0.00 0.00 72 1015.0
20260504141252 17 163 0.0 0.0 0.00 0.00 0.00 71 1015.0
20260504100445 13 276 0.0 0.0 0.00 0.00 0.00 90 1015.0